Location: Killam
(52.7910°N, 111.8608°W)
Time: 22:44:59
(UTC+00:00)

Vanguard 3 - Pass Details

Date: 22 February 2026
Orbit: 507 x 3205 km, 33.4° (Epoch: 11 March)

Event Time Altitude Azimuth Distance (km) Brightness Sun altitude
Rises 22:56:28 0° 233° (SW) 6,138 13.6 14.7°
Reaches altitude 10° 23:02:20 10° 221° (SW) 4,607 13.3 14.1°
Maximum altitude 23:10:12 21° 180° (S) 3,024 10.7 13.1°
Drops below altitude 10° 23:15:48 10° 135° (SE) 3,136 10.1 12.4°
Sets 23:18:50 0° 119° (ESE) 3,739 10.3 12.1°
